Regional Weather Roundup
Issued by NWS Green Bay, WI

Home | Current Version | Previous Version | Graphics & Text | Print | Product List | Glossary Off
Versions: 1 2 3 4 5 6 7 8 9 10 11 12 13 14 15 16 17 18 19 20 21 22 23 24 25 26 27 28 29 30 31 32 33 34 35 36 37 38 39 40 41 42 43 44 45 46 47 48 49 50

000
ASUS43 KGRB 240911
RWRGRB

NORTH-CENTRAL AND NORTHEAST WISCONSIN REGIONAL WEATHER ROUNDUP
NATIONAL WEATHER SERVICE GREEN BAY WI
400 AM CDT TUE MAY 24 2016

WIZ005-009-010>012-018-019-241000-
NORTH CENTRAL WISCONSIN

CITY           SKY/WX    TMP DP  RH WIND       PRES   REMARKS
IRONWOOD       CLOUDY    61  59  94 S8        29.82R
MANITOWISH WTR LGT RAIN  60  60 100 CALM      29.86R
ARBOR VITAE    LGT RAIN  63  60  89 S3        29.87R
EAGLE RIVER    LGT RAIN  59  53  80 SW3       29.87S
LAND O LAKES   MOCLDY    59  56  91 CALM      29.87F
RHINELANDER    LGT RAIN  61  57  87 SW6       29.90R
PHILLIPS       DRIZZLE   62  60  95 S8        29.86R
ANTIGO         CLOUDY    59  51  74 CALM      29.90S
TOMAHAWK       HVY RAIN  61  59  94 CALM      29.90R
MERRILL        CLOUDY    63  56  80 CALM      29.89R
$$

WIZ013-073-241000-
NORTHEAST WISCONSIN

CITY           SKY/WX    TMP DP  RH WIND       PRES   REMARKS
IRON MOUNTAIN  CLEAR     58  48  69 CALM      29.86R
MARINETTE      CLEAR     60  47  61 SW6       29.87F
OCONTO         PTCLDY    51  50  97 CALM      29.88R
$$

WIZ017-030-035>037-045-241000-
CENTRAL WISCONSIN

CITY           SKY/WX    TMP DP  RH WIND       PRES   REMARKS
MEDFORD        CLOUDY    60  60 100 CALM      29.87F
WAUSAU         MOCLDY    63  52  67 E3        29.87R
MOSINEE        PTCLDY    55  52  88 CALM      29.89S
MARSHFIELD     CLOUDY    62  57  83 CALM      29.87F
WISC RAPIDS    MOCLDY    61  47  59 CALM      29.89S
STEVENS POINT  PTCLDY    55  48  75 CALM      29.89S
WAUPACA        PTCLDY    55  49  81 CALM      29.90S
SHAWANO        MOCLDY    63  50  62 CALM      29.89R
CLINTONVILLE   PTCLDY    61  48  63 S6        29.89R
WAUTOMA        CLEAR     50  47  89 CALM      29.90R
$$

WIZ038-039-048-051-241000-
FOX VALLEY

CITY           SKY/WX    TMP DP  RH WIND       PRES   REMARKS
NWS GREEN BAY  CLEAR     58  43  57 CALM      29.89S
APPLETON       CLEAR     59  43  55 S3        29.89S
OSHKOSH        CLEAR     57  45  64 S9        29.90R
FOND DU LAC    CLEAR     57  43  59 S5        29.91R
$$

WIZ022-050-052-241000-
EAST CENTRAL WISCONSIN

CITY           SKY/WX    TMP DP  RH WIND       PRES   REMARKS
EPHRAIM        FAIR      60  39  44 S5        29.87S
STURGEON BAY   NOT AVBL
MANITOWOC      CLEAR     52  45  77 E5        29.91R
SHEBOYGAN      CLEAR     51  42  71 SW3       29.92R
$$

LMZ563-521-522-541>543-241000-
LAKESHORE

STATION/POSITION TIME  TEMP    WIND        PRES    VSBY  WAVE
                       AIR SEA DIR/SP/G                  HT/PER
                 (UTC) (F)     (DEG/KT/KT) (MB)    (MI)  (FT/S)
SHEBOYGAN LKSHOR 0900   55     180/  7/  7 1013.4R
KEWAUNEE LKSHORE 0800   53     170/  9/  9 1011.6F
ALGOMA MARINA    0846          220/ 10/ 11   N/A
NORTHPORT PIER   0800   61     170/  5/ 12 1011.5F
N MID LAKE BUOY  0850   48 44  200/ 12/ 14 1011.6S         2/ 4
SISTER BAY LKSHO 0804   64     190/ 17/ 22   N/A
CHAMBERS ISLAND  0840   62     180/  7/ 12 1011.5S
MENOMINEE LKSHOR 0800   66     190/  8/ 10 1010.4R
$$




USA.gov is the U.S. government's official web portal to all federal, state and local government web resources and services.